Location: Proctor
(47.8934°N, 114.3048°W)
Time: 20:55:00
(UTC+00:00)

Vanguard 2 Rocket - Pass Details

Date: 18 June 2024
Orbit: 555 x 3302 km, 32.9° (Epoch: 22 July)

Event Time Altitude Azimuth Distance (km) Brightness Sun altitude
Exits shadow 08:42:41 14° 170° (S) 5,886 10.5 -17.2°
Maximum altitude 08:51:44 20° 140° (SE) 5,392 10.5 -16.8°
Drops below altitude 10° 09:03:01 10° 103° (ESE) 5,809 11.1 -16.2°
Sets 09:08:51 0° 88° (E) 6,460 11.6 -15.9°
